EW5598 Weather Reports


Display with metric or nautical units.
time (UTC)temp
F
wind
direction
speed
MPH
gust
MPH
rain 1hr
in
rain 24hr
in
rain mn
in
humidity
%
barometer
mb
20260503054559 56 250 0.0 0.0 0.00 0.00 0.00 46 1009.7
20260503053055 57 250 0.0 0.0 0.00 0.00 0.00 44 1009.6
20260503051555 58 250 0.0 0.0 0.00 0.00 0.00 41 1009.3
20260503050055 59 250 0.0 0.0 0.00 0.00 0.00 39 1009.5
20260503044612 60 250 0.0 0.0 0.00 0.00 0.00 35 1009.3
20260503043058 62 250 0.0 0.0 0.00 0.00 0.00 34 1009.1
20260503041610 63 250 0.0 0.0 0.00 0.00 0.00 31 1008.9
20260503040054 63 250 0.0 0.0 0.00 0.00 0.00 31 1009.3
20260503034553 63 250 0.0 0.0 0.00 0.00 0.00 31 1009.2
20260503033106 64 250 0.0 0.0 0.00 0.00 0.00 31 1008.8
20260503031552 65 250 0.0 0.0 0.00 0.00 0.00 29 1008.8
20260503030054 66 250 0.0 0.0 0.00 0.00 0.00 27 1008.8
20260503024559 67 250 0.0 0.0 0.00 0.00 0.00 27 1008.6
20260503023054 69 250 0.0 0.0 0.00 0.00 0.00 29 1008.2
20260503021553 70 250 1.0 0.0 0.00 0.00 0.00 28 1008.1
20260503020055 72 250 1.0 0.0 0.00 0.00 0.00 27 1008.4
20260503014551 72 250 3.0 0.0 0.00 0.00 0.00 22 1008.5
20260503013048 73 301 2.0 0.0 0.00 0.00 0.00 22 1008.6
20260503011601 73 252 3.0 0.0 0.00 0.00 0.00 23 1008.5
20260503010046 74 298 2.0 0.0 0.00 0.00 0.00 24 1008.6
20260503004550 74 312 3.0 0.0 0.00 0.00 0.00 21 1008.7
20260503003044 74 313 3.0 0.0 0.00 0.00 0.00 23 1008.7
20260503001546 72 245 4.0 0.0 0.00 0.00 0.00 23 1008.7
20260503000044 72 274 4.0 0.0 0.00 0.00 0.00 23 1008.9
20260502234550 73 265 4.0 0.0 0.00 0.00 0.00 24 1008.6
20260502233042 73 262 6.0 0.0 0.00 0.00 0.00 22 1009.0
20260502231544 73 264 7.0 0.0 0.00 0.00 0.00 22 1009.3
20260502230041 74 260 5.0 0.0 0.00 0.00 0.00 24 1009.1
20260502224539 73 210 5.0 0.0 0.00 0.00 0.00 26 1009.1
20260502223038 73 205 5.0 0.0 0.00 0.00 0.00 27 1009.5
20260502221540 72 214 4.0 0.0 0.00 0.00 0.00 29 1009.8
20260502220051 72 198 5.0 0.0 0.00 0.00 0.00 28 1009.4
20260502214533 72 247 5.0 0.0 0.00 0.00 0.00 32 1009.8
20260502213037 69 274 4.0 0.0 0.00 0.00 0.00 35 1010.3
20260502211533 69 272 4.0 0.0 0.00 0.00 0.00 31 1010.4
20260502210031 70 237 4.0 0.0 0.00 0.00 0.00 32 1010.1
20260502204530 71 243 5.0 0.0 0.00 0.00 0.00 33 1010.2
20260502203028 69 264 4.0 0.0 0.00 0.00 0.00 31 1010.7
20260502201536 69 293 4.0 0.0 0.00 0.00 0.00 35 1010.8
20260502200026 68 259 4.0 0.0 0.00 0.00 0.00 36 1010.8
20260502194535 67 271 3.0 0.0 0.00 0.00 0.00 39 1011.2
20260502193018 66 239 3.0 0.0 0.00 0.00 0.00 38 1011.3
20260502191514 66 266 3.0 0.0 0.00 0.00 0.00 42 1011.9
20260502190009 64 248 2.0 0.0 0.00 0.00 0.00 38 1012.0
20260502184509 64 274 3.0 0.0 0.00 0.00 0.00 41 1012.1
20260502183003 63 257 2.0 0.0 0.00 0.00 0.00 43 1012.6
20260502181559 62 266 3.0 0.0 0.00 0.00 0.00 46 1012.8
20260502163057 56 264 1.0 0.0 0.00 0.00 0.00 52 1013.6
20260502161531 54 264 1.0 0.0 0.00 0.00 0.00 56 1013.9
20260502151528 49 264 0.0 0.0 0.00 0.00 0.00 63 1014.1
20260502123007 44 264 0.0 0.0 0.00 0.00 0.00 65 1013.1
20260502121505 45 264 0.0 0.0 0.00 0.00 0.00 64 1013.1
20260502114503 46 264 0.0 0.0 0.00 0.00 0.00 64 1012.9
20260502113003 46 264 0.0 0.0 0.00 0.00 0.00 62 1012.7
20260502111502 46 264 0.0 0.0 0.00 0.00 0.00 63 1012.8
20260502110005 45 264 0.0 0.0 0.00 0.00 0.00 65 1012.7
20260502104600 45 264 0.0 0.0 0.00 0.00 0.00 65 1012.7
20260502103101 46 264 0.0 0.0 0.00 0.00 0.00 63 1012.7
20260502101602 47 264 0.0 0.0 0.00 0.00 0.00 62 1012.5
20260502070046 53 264 0.0 0.0 0.00 0.00 0.00 47 1011.4
20260502064542 54 264 0.0 0.0 0.00 0.00 0.00 46 1011.4
20260502063032 55 264 0.0 0.0 0.00 0.00 0.00 43 1011.3
20260502061533 55 264 0.0 0.0 0.00 0.00 0.00 43 1011.2